TimeEST,TemperatureF,Dew PointF,Humidity,Sea Level PressureIn,VisibilityMPH,Wind Direction,Wind SpeedMPH,Gust SpeedMPH,PrecipitationIn,Events,Conditions,WindDirDegrees,DateUTC
12:54 AM,43.0,27.0,53,30.10,10.0,West,6.9,-,N/A,,Clear,270,2013-01-07 05:54:00
1:54 AM,41.0,26.1,55,30.12,10.0,West,4.6,-,N/A,,Clear,260,2013-01-07 06:54:00
2:54 AM,41.0,26.1,55,30.14,10.0,West,6.9,-,N/A,,Clear,280,2013-01-07 07:54:00
3:54 AM,39.9,26.1,58,30.15,10.0,West,4.6,-,N/A,,Clear,280,2013-01-07 08:54:00
4:54 AM,39.0,26.1,60,30.17,10.0,West,8.1,-,N/A,,Clear,280,2013-01-07 09:54:00
5:54 AM,39.0,27.0,62,30.21,10.0,West,5.8,-,N/A,,Overcast,280,2013-01-07 10:54:00
6:54 AM,37.9,28.0,68,30.25,10.0,West,3.5,-,N/A,,Scattered Clouds,270,2013-01-07 11:54:00
7:54 AM,39.0,28.0,65,30.28,10.0,WNW,5.8,-,N/A,,Overcast,290,2013-01-07 12:54:00
8:54 AM,41.0,28.0,60,30.31,10.0,WNW,6.9,-,N/A,,Partly Cloudy,300,2013-01-07 13:54:00
9:54 AM,43.0,28.9,58,30.33,10.0,NW,8.1,-,N/A,,Partly Cloudy,320,2013-01-07 14:54:00
10:54 AM,45.0,28.9,53,30.35,10.0,NW,10.4,-,N/A,,Mostly Cloudy,310,2013-01-07 15:54:00
11:54 AM,45.0,27.0,49,30.34,10.0,NW,6.9,-,N/A,,Scattered Clouds,310,2013-01-07 16:54:00
12:54 PM,46.9,27.0,46,30.35,10.0,WNW,9.2,16.1,N/A,,Scattered Clouds,300,2013-01-07 17:54:00
1:54 PM,46.9,26.1,44,30.35,10.0,NNW,8.1,-,N/A,,Partly Cloudy,340,2013-01-07 18:54:00
2:54 PM,46.9,26.1,44,30.37,10.0,Variable,4.6,-,N/A,,Clear,0,2013-01-07 19:54:00
3:54 PM,46.0,25.0,44,30.38,10.0,NNW,4.6,-,N/A,,Clear,340,2013-01-07 20:54:00
4:54 PM,42.1,24.1,49,30.40,10.0,Calm,Calm,-,N/A,,Clear,0,2013-01-07 21:54:00
6:54 PM,30.9,24.1,76,30.42,10.0,South,3.5,-,N/A,,Clear,180,2013-01-07 23:54:00
7:54 PM,30.0,24.1,79,30.42,10.0,Calm,Calm,-,N/A,,Clear,0,2013-01-08 00:54:00
8:54 PM,28.0,23.0,81,30.42,10.0,Calm,Calm,-,N/A,,Clear,0,2013-01-08 01:54:00
9:54 PM,28.0,24.1,85,30.42,9.0,South,3.5,-,N/A,,Clear,170,2013-01-08 02:54:00
10:54 PM,27.0,23.0,85,30.43,8.0,Calm,Calm,-,N/A,,Clear,0,2013-01-08 03:54:00
11:54 PM,26.1,23.0,88,30.43,7.0,Calm,Calm,-,N/A,,Clear,0,2013-01-08 04:54:00